Weather in Krasnaya Polyana

Russia / Kostroma Oblast     57°52′21″N   42°10′12″E
temp.,
°C
wind,
m/s
gust,
m/s
humid.,
%
clouds,
%
prec.,
mm/h
press.,
hPa
HPBL,
m
5 march, fri
fri500:00−12nw23940 0.0 100021
03:00−14w23975 0.0 100223
06:00−13w249892 0.1 100282
09:00−10wnw369580 0.1 1003252
12:00−6wnw369089 0.0 1004592
15:00−5wnw368694 0.1 1006917
18:00−8nw3993100 0.3 1008320
21:00−13nw398874 0.3 1010217
6 march, sat
sat600:00−16wnw239518 0.0 101120
03:00−14wsw269749 0.1 1013151
06:00−15w259799 0.1 1013113
09:00−13wnw259595 0.1 1014237
12:00−10nw248999 0.1 1014650
15:00−9wnw348599 0.1 1013874
18:00−13w2293100 0.1 101320
21:00−16wsw239688 0.1 101336
7 march, sun
sun700:00−17ssw239856 0.0 101144
03:00−17s389763 0.0 1008160
06:00−14s5129475 0.0 1004359
09:00−10s6129487 0.5 1000682
12:00−7s61093100 0.8 995906
15:00−5s61094100 2.1 992881
18:00−5sse41095100 1.0 989635
21:00−7w71391100 1.8 989663
8 march, mon
mon800:00−9wsw61291100 0.4 990838
03:00−11wsw51287100 0.8 991579
06:00−11wsw51191100 0.4 990574
09:00−11wsw4894100 1.3 991463
12:00−7nnw5789100 0.6 993872
15:00−7n5789100 1.0 996882
18:00−11nnw41190100 0.3 999535
21:00−13nnw4109299 0.3 1003478
9 march, tue
tue900:00−15nnw4109399 0.0 1006384
03:00−18nnw399598 0.1 1008258
06:00−18nnw389599 0.0 1011379
09:00−19nnw479499 0.1 1013370
12:00−17nnw369181 0.0 1014463
15:00−15nnw478889 0.0 1015609
18:00−19nnw3794100 0.0 1016138
21:00−23nnw359784 0.0 101988